Weather History for Chetek Municipal Southworth A, WI

Change the Weather History Date:

Thursday, December 5, 2013

  Actual Average (KRPD) Record (KRPD)
Temperature  
Mean Temperature 10 °F -  
Max Temperature 22 °F 31 °F 62 °F (2001)
Min Temperature -1 °F 18 °F -5 °F (2000)
Degree Days  
Heating Degree Days 54    
Moisture  
Dew Point 2 °F    
Average Humidity 80    
Maximum Humidity 89    
Minimum Humidity 74    
Precipitation  
Precipitation 0.00 in - - ()
Sea Level Pressure  
Sea Level Pressure 29.95 in    
Wind  
Wind Speed 10 mph (WSW)    
Max Wind Speed 18 mph    
Max Gust Speed 28 mph    
Visibility 9 miles    
Events Snow    
Averages and records for this station are not official NWS values.
T = Trace of Precipitation, MM = Missing Value Source: NWS Daily Summary

Daily Weather History Graph

Daily Weather History Graph

Search for Another Location

Airport:

Trip Planner

Search our weather history database for the weather conditions in past years. The results will help you decide how hot, cold, wet, or windy it might be!

Date:

Astronomy

Dec. 05, 2013 Rise Set
Actual Time 7:30 AM CST 4:24 PM CST
Civil Twilight 6:56 AM CST 4:57 PM CST
Nautical Twilight 6:19 AM CST 5:34 PM CST
Astronomical Twilight 5:43 AM CST 6:10 PM CST
Moon 9:46 AM CST (12/5) 7:50 PM CST (12/5)
Length of Visible Light 10h 01m
Length of Day
8h 53m
Waxing Crescent, 11% of the Moon is Illuminated
Dec 5
Waxing Crescent
Dec 9
First Quarter
Dec 17
Full
Dec 25
Last Quarter
Jan 1
New

Hourly Weather History & Observations

Time (CST) Temp. Windchill Dew Point Humidity Pressure Visibility Wind Dir Wind Speed Gust Speed Precip Events Conditions
12:15 AM 22.5 °F 12.4 °F 19.4 °F 88% 29.56 in 10.0 mi SW 9.2 mph 20.7 mph N/A   Overcast
12:35 AM 21.2 °F 10.1 °F 18.3 °F 89% 29.58 in 10.0 mi SW 10.4 mph 23.0 mph N/A   Overcast
12:55 AM 20.3 °F 8.3 °F 17.1 °F 87% 29.58 in 10.0 mi SW 11.5 mph 21.9 mph N/A   Overcast
1:15 AM 18.7 °F 3.1 °F 15.3 °F 87% 29.60 in 10.0 mi WSW 18.4 mph 26.5 mph N/A   Overcast
1:35 AM 18.3 °F 5.9 °F 14.7 °F 86% 29.61 in 10.0 mi WSW 11.5 mph 19.6 mph N/A Snow Light Snow
1:55 AM 16.7 °F 2.6 °F 13.1 °F 86% 29.62 in 7.0 mi WSW 13.8 mph 23.0 mph N/A Snow Light Snow
2:15 AM 15.8 °F 1.4 °F 12.0 °F 85% 29.63 in 7.0 mi WSW 13.8 mph 23.0 mph N/A Snow Light Snow
2:35 AM 14.9 °F 0.3 °F 10.9 °F 84% 29.63 in 5.0 mi WSW 13.8 mph 23.0 mph N/A Snow Light Snow
2:55 AM 14.0 °F -2.5 °F 9.5 °F 82% 29.66 in 4.0 mi WSW 17.3 mph 27.6 mph N/A Snow Light Snow
3:15 AM 13.5 °F 1.3 °F 9.1 °F 83% 29.68 in 7.0 mi WSW 9.2 mph 23.0 mph N/A Snow Light Snow
3:35 AM 12.9 °F 0.7 °F 8.6 °F 83% 29.69 in 4.0 mi WSW 9.2 mph - N/A Snow Light Snow
3:55 AM 12.2 °F -3.1 °F 7.7 °F 82% 29.70 in 5.0 mi WSW 13.8 mph 24.2 mph N/A Snow Light Snow
4:15 AM 11.7 °F -3.2 °F 6.8 °F 81% 29.72 in 5.0 mi WSW 12.7 mph 21.9 mph N/A Snow Light Snow
4:35 AM 11.1 °F -3.2 °F 6.6 °F 82% 29.73 in 4.0 mi SW 11.5 mph 19.6 mph N/A Snow Light Snow
4:55 AM 10.4 °F -3.3 °F 5.7 °F 81% 29.75 in 5.0 mi WSW 10.4 mph 18.4 mph N/A Snow Light Snow
5:15 AM 9.5 °F -6.6 °F 4.8 °F 81% 29.77 in 5.0 mi SW 13.8 mph 24.2 mph N/A   Overcast
5:35 AM 8.6 °F -5.5 °F 4.1 °F 82% 29.78 in 7.0 mi WSW 10.4 mph 20.7 mph N/A   Overcast
5:55 AM 8.4 °F -5.7 °F 3.6 °F 81% 29.79 in 7.0 mi WSW 10.4 mph 18.4 mph N/A   Overcast
6:15 AM 7.5 °F -6.9 °F 2.7 °F 81% 29.81 in 10.0 mi WSW 10.4 mph 23.0 mph N/A   Overcast
6:35 AM 7.2 °F -4.3 °F 2.3 °F 80% 29.82 in 7.0 mi WSW 6.9 mph 18.4 mph N/A Snow Light Snow
6:55 AM 6.8 °F -7.8 °F 1.9 °F 80% 29.82 in 10.0 mi SW 10.4 mph 19.6 mph N/A   Overcast
7:15 AM 6.8 °F -6.9 °F 1.9 °F 80% 29.84 in 10.0 mi WSW 9.2 mph 19.6 mph N/A   Overcast
7:35 AM 6.6 °F -7.1 °F 1.8 °F 80% 29.85 in 10.0 mi WSW 9.2 mph 19.6 mph N/A   Overcast
7:55 AM 6.4 °F -9.0 °F 1.4 °F 80% 29.86 in 10.0 mi WSW 11.5 mph 20.7 mph N/A   Overcast
8:15 AM 6.3 °F -6.5 °F 1.2 °F 80% 29.87 in 7.0 mi WSW 8.1 mph 17.3 mph N/A   Overcast
8:35 AM 6.4 °F -9.0 °F 1.4 °F 80% 29.89 in 10.0 mi WSW 11.5 mph 19.6 mph N/A   Overcast
8:55 AM 6.6 °F -8.8 °F 1.4 °F 79% 29.89 in 10.0 mi WSW 11.5 mph 20.7 mph N/A   Overcast
9:15 AM 6.8 °F - 1.4 °F 79% 29.90 in 10.0 mi North - - N/A   Mostly Cloudy
9:35 AM 7.2 °F -6.4 °F 1.4 °F 77% 29.92 in 10.0 mi WSW 9.2 mph 24.2 mph N/A   Scattered Clouds
9:55 AM 7.0 °F -9.8 °F 1.4 °F 78% 29.93 in 10.0 mi WSW 13.8 mph 21.9 mph N/A   Mostly Cloudy
10:15 AM 7.7 °F -7.4 °F 1.4 °F 75% 29.95 in 10.0 mi WSW 11.5 mph 24.2 mph N/A   Mostly Cloudy
10:35 AM 7.9 °F -5.5 °F 1.9 °F 77% 29.96 in 10.0 mi SW 9.2 mph - N/A   Mostly Cloudy
10:55 AM 7.9 °F -7.2 °F 1.8 °F 76% 29.97 in 10.0 mi West 11.5 mph 20.7 mph N/A   Overcast
11:15 AM 8.4 °F -6.5 °F 2.3 °F 76% 29.97 in 7.0 mi WSW 11.5 mph 18.4 mph N/A   Overcast
11:35 AM 8.8 °F -8.7 °F 2.7 °F 76% 29.97 in 10.0 mi WSW 16.1 mph 23.0 mph N/A   Mostly Cloudy
11:55 AM 9.3 °F -6.1 °F 3.2 °F 76% 29.97 in 10.0 mi WSW 12.7 mph 19.6 mph N/A   Mostly Cloudy
12:15 PM 8.8 °F -5.3 °F 2.3 °F 75% 29.98 in 10.0 mi WSW 10.4 mph 23.0 mph N/A   Mostly Cloudy
12:35 PM 9.3 °F -8.0 °F 2.8 °F 75% 29.98 in 10.0 mi WSW 16.1 mph 26.5 mph N/A   Mostly Cloudy
12:55 PM 8.6 °F -5.5 °F 2.3 °F 76% 29.99 in 10.0 mi WSW 10.4 mph 21.9 mph N/A   Mostly Cloudy
1:15 PM 9.1 °F -6.4 °F 2.5 °F 74% 30.00 in 10.0 mi WSW 12.7 mph 17.3 mph N/A   Mostly Cloudy
1:35 PM 8.6 °F -5.5 °F 2.3 °F 76% 30.00 in 10.0 mi WSW 10.4 mph 16.1 mph N/A   Mostly Cloudy
1:55 PM 8.1 °F -7.7 °F 1.4 °F 74% 30.01 in 10.0 mi WSW 12.7 mph - N/A   Mostly Cloudy
2:15 PM 9.0 °F -8.5 °F 2.3 °F 74% 30.02 in 10.0 mi West 16.1 mph 21.9 mph N/A   Scattered Clouds
2:35 PM 8.6 °F -8.3 °F 2.1 °F 75% 30.02 in 10.0 mi WSW 15.0 mph 20.7 mph N/A   Scattered Clouds
2:55 PM 8.1 °F -9.0 °F 1.4 °F 74% 30.02 in 10.0 mi WSW 15.0 mph 21.9 mph N/A   Scattered Clouds
3:15 PM 7.5 °F -9.7 °F 1.4 °F 76% 30.03 in 10.0 mi WSW 15.0 mph - N/A   Scattered Clouds
3:35 PM 7.5 °F -3.9 °F 1.6 °F 77% 30.02 in 10.0 mi WSW 6.9 mph 18.4 mph N/A   Scattered Clouds
3:55 PM 6.8 °F -6.9 °F 1.0 °F 77% 30.03 in 10.0 mi WSW 9.2 mph 18.4 mph N/A   Clear
4:15 PM 6.4 °F -3.9 °F 1.0 °F 78% 30.04 in 10.0 mi WSW 5.8 mph - N/A   Clear
4:35 PM 5.9 °F -4.5 °F 0.3 °F 78% 30.05 in 10.0 mi WSW 5.8 mph - N/A   Clear
4:55 PM 5.4 °F -1.7 °F -0.2 °F 78% 30.06 in 10.0 mi WSW 3.5 mph - N/A   Clear
5:10 PM 5.0 °F -4.1 °F -0.4 °F 78% 30.07 in 10.0 mi SW 4.6 mph - N/A   Clear
5:35 PM 4.1 °F -5.1 °F -1.1 °F 79% 30.09 in 10.0 mi SW 4.6 mph - N/A   Clear
5:55 PM 3.6 °F -5.7 °F -1.3 °F 80% 30.10 in 10.0 mi SW 4.6 mph - N/A   Clear
6:15 PM 3.2 °F -6.2 °F -1.5 °F 81% 30.11 in 10.0 mi SW 4.6 mph - N/A   Clear
6:35 PM 3.6 °F -5.7 °F -1.8 °F 78% 30.13 in 10.0 mi SW 4.6 mph - N/A   Clear
6:55 PM 2.7 °F -6.8 °F -2.2 °F 80% 30.14 in 10.0 mi SW 4.6 mph - N/A   Clear
7:15 PM 3.0 °F -6.4 °F -2.2 °F 79% 30.16 in 10.0 mi SW 4.6 mph - N/A   Clear
7:35 PM 2.7 °F -8.4 °F -2.4 °F 79% 30.17 in 10.0 mi WSW 5.8 mph - N/A   Clear
7:55 PM 2.5 °F -8.6 °F -2.6 °F 79% 30.18 in 10.0 mi SW 5.8 mph - N/A   Clear
8:15 PM 2.1 °F -9.0 °F -3.1 °F 79% 30.20 in 10.0 mi WSW 5.8 mph - N/A   Clear
8:35 PM 2.1 °F -12.6 °F -3.5 °F 77% 30.20 in 10.0 mi WSW 9.2 mph - N/A   Clear
8:55 PM 1.4 °F -12.5 °F -3.6 °F 79% 30.21 in 10.0 mi WSW 8.1 mph - N/A   Clear
9:15 PM 1.2 °F -13.7 °F -4.0 °F 79% 30.21 in 10.0 mi West 9.2 mph - N/A   Clear
9:35 PM 0.9 °F -13.1 °F -4.2 °F 79% 30.22 in 10.0 mi West 8.1 mph - N/A   Clear
9:55 PM 0.5 °F -9.3 °F -4.2 °F 81% 30.22 in 10.0 mi WSW 4.6 mph - N/A   Clear
10:15 PM -0.0 °F -11.6 °F -4.9 °F 80% 30.22 in 10.0 mi West 5.8 mph - N/A   Clear
10:35 PM -0.4 °F -10.4 °F -5.1 °F 81% 30.22 in 10.0 mi WSW 4.6 mph - N/A   Clear
10:55 PM -0.6 °F -8.5 °F -5.3 °F 81% 30.23 in 10.0 mi WSW 3.5 mph - N/A   Clear
11:15 PM -1.3 °F -11.4 °F -5.8 °F 81% 30.23 in 10.0 mi WSW 4.6 mph - N/A   Clear
11:35 PM -1.5 °F -9.5 °F -6.0 °F 81% 30.24 in 10.0 mi WSW 3.5 mph - N/A   Clear
11:55 PM -1.8 °F -13.7 °F -6.3 °F 81% 30.25 in 10.0 mi WSW 5.8 mph - N/A   Clear